Weather History for Port Mellon, BC

Change the Weather History Date:

Thursday, February 27, 2014

  Actual Average Record
Temperature  
Mean Temperature 42 °F -  
Max Temperature 49 °F - - ()
Min Temperature 35 °F - - ()
Degree Days  
Heating Degree Days 23    
Moisture  
Dew Point 37 °F    
Average Humidity 82    
Maximum Humidity 93    
Minimum Humidity 62    
Precipitation  
Precipitation 0.00 in - - ()
Sea Level Pressure  
Sea Level Pressure 29.70 in    
Wind  
Wind Speed 1 mph ()    
Max Wind Speed 4 mph    
Max Gust Speed -    
T = Trace of Precipitation, MM = Missing Value Source: Averaged Metar Reports

Daily Weather History Graph

Daily Weather History Graph

Search for Another Location

Airport:

Trip Planner

Search our weather history database for the weather conditions in past years. The results will help you decide how hot, cold, wet, or windy it might be!

Date:

Astronomy

Feb. 27, 2014 Rise Set
Actual Time 7:00 AM PST 5:53 PM PST
Civil Twilight 6:28 AM PST 6:25 PM PST
Nautical Twilight 5:51 AM PST 7:03 PM PST
Astronomical Twilight 5:14 AM PST 7:40 PM PST
Moon 5:43 AM PST (2/27) 4:21 PM PST (2/27)
Length of Visible Light 11h 57m
Length of Day
10h 53m
Waning Crescent, 3% of the Moon is Illuminated
Feb 27
Waning Crescent
Mar 1
New
Mar 8
First Quarter
Mar 16
Full
Mar 23
Last Quarter

Hourly Weather History & Observations

Time (PST) Temp. Windchill Dew Point Humidity Pressure Visibility Wind Dir Wind Speed Gust Speed Precip Events Conditions
12:00 AM 38.7 °F - 35.1 °F 87% 29.74 in - SW 1.2 mph - N/A   Unknown
1:00 AM 39.7 °F - 35.8 °F 86% 29.73 in - NNW 1.2 mph - N/A   Unknown
2:00 AM 39.2 °F - 35.6 °F 87% 29.71 in - South 2.3 mph - N/A   Unknown
3:00 AM 39.7 °F 37.6 °F 35.4 °F 85% 29.69 in - NNW 3.5 mph - N/A   Unknown
4:00 AM 39 °F - 35 °F 81% 29.69 in - SSE 1.2 mph - -  
4:00 AM 38.7 °F - 35.2 °F 87% 29.69 in - South 1.2 mph - N/A   Unknown
5:00 AM 38.5 °F - 36.0 °F 91% 29.67 in - Calm Calm - N/A   Unknown
6:00 AM 37.4 °F - 35.6 °F 93% 29.66 in - NNW 2.3 mph - N/A   Unknown
7:00 AM 36.5 °F - 34.7 °F 93% 29.66 in - NNE 1.2 mph - N/A   Unknown
8:00 AM 38.5 °F - 35.8 °F 90% 29.66 in - Calm Calm - N/A   Unknown
9:00 AM 40.1 °F - 36.1 °F 86% 29.67 in - South 1.2 mph - N/A   Unknown
10:00 AM 45 °F - 36 °F 62% 29.67 in - SSE 2.3 mph - -  
10:00 AM 44.8 °F - 36.3 °F 72% 29.67 in - SSE 2.3 mph - N/A   Unknown
11:00 AM 48.7 °F - 36.1 °F 62% 29.68 in - ESE 1.2 mph - N/A   Unknown
12:00 PM 45.0 °F - 36.7 °F 73% 29.69 in - East 2.3 mph - N/A   Unknown
1:00 PM 46.2 °F - 38.1 °F 73% 29.68 in - SE 2.3 mph - N/A   Unknown
2:00 PM 45.7 °F - 37.6 °F 73% 29.68 in - Calm Calm - N/A   Unknown
3:00 PM 45.9 °F - 38.8 °F 76% 29.69 in - NNE 1.2 mph - N/A   Unknown
4:00 PM 47 °F - 39 °F 65% 29.69 in - Calm Calm - -  
4:00 PM 47.1 °F - 39.0 °F 73% 29.69 in - Calm Calm - N/A   Unknown
5:00 PM 42.8 °F - 38.1 °F 84% 29.70 in - WNW 1.2 mph - N/A   Unknown
6:00 PM 39.7 °F - 36.0 °F 86% 29.71 in - West 1.2 mph - N/A   Unknown
7:00 PM 39.6 °F - 36.5 °F 89% 29.73 in - NW 2.3 mph - N/A   Unknown
8:00 PM 40.5 °F - 37.8 °F 90% 29.75 in - SSE 2.3 mph - N/A   Unknown
9:00 PM 39.6 °F - 36.0 °F 87% 29.75 in - East 1.2 mph - N/A   Unknown
10:00 PM 40 °F - 37 °F 87% 29.77 in - North 2.3 mph - -  
10:00 PM 39.7 °F - 37.4 °F 91% 29.77 in - NNE 1.2 mph - N/A   Unknown
11:00 PM 40.6 °F - 37.0 °F 87% 29.77 in - Calm Calm - N/A   Unknown